Location: Milton Keynes
(52.0316°N, 0.7531°W)
Time: 23:28:07
(UTC+01:00)

Envisat - Pass Details

Date: 26 January 2019
Orbit: 764 x 766 km, 98.2° (Epoch: 19 April)

Event Time Altitude Azimuth Distance (km) Brightness Sun altitude
Rises 17:40:57 0° 138° (SE) 3,223 6.0 -9.5°
Reaches altitude 10° 17:43:23 10° 131° (SE) 2,301 5.2 -9.8°
Maximum altitude 17:48:02 38° 64° (ENE) 1,160 3.5 -10.5°
Drops below altitude 10° 17:52:43 10° 358° (N) 2,317 5.4 -11.2°
Sets 17:55:09 0° 351° (N) 3,248 6.2 -11.6°
